Location: Chuathbaluk
(61.5726°N, 159.2454°W)
Time: 08:04:59
(UTC+00:00)

XW-2F - Pass Details

Date: 23 January 2021
Orbit: 499 x 520 km, 97.5° (Epoch: 09 March)

Event Time Altitude Azimuth Distance (km) Brightness Sun altitude
Rises 18:23:21 0° 13° (NNE) 2,664 ? -6.3°
Reaches altitude 10° 18:25:39 10° 2° (N) 1,773 ? -6.1°
Maximum altitude 18:28:57 28° 302° (WNW) 1,001 ? -5.7°
Drops below altitude 10° 18:32:14 10° 243° (WSW) 1,765 ? -5.4°
Sets 18:34:31 0° 231° (SW) 2,650 ? -5.2°
